Location: Tamazert
(32.6352°N, 5.2072°W)
Time: 03:03:06
(UTC+00:00)

Vanguard 2 Rocket - Pass Details

Date: 12 October 2022
Orbit: 555 x 3321 km, 32.9° (Epoch: 05 December)

Event Time Altitude Azimuth Distance (km) Brightness Sun altitude
Rises 17:48:00 0° 218° (SW) 6,639 12.1 -0.1°
Reaches altitude 10° 17:52:21 10° 213° (SSW) 5,873 11.7 -1.0°
Maximum altitude 18:10:28 48° 146° (SE) 3,953 9.9 -4.8°
Drops below altitude 10° 18:27:39 10° 79° (E) 5,635 10.2 -8.4°
Enters shadow 18:28:10 - 79° (ENE) 5,725 10.3 -8.5°
Sets 18:31:39 0° 74° (ENE) 6,369 - -9.2°
